site,time,unit,value
Swansea Waterfront,2024-05-03T00:05:00+01:00,MW,-1.247
Swansea Waterfront,2024-05-03T00:10:00+01:00,MW,-1.243
Swansea Waterfront,2024-05-03T00:15:00+01:00,MW,-1.255
Swansea Waterfront,2024-05-03T00:20:00+01:00,MW,-1.258
Swansea Waterfront,2024-05-03T00:25:00+01:00,MW,-1.257
Swansea Waterfront,2024-05-03T00:30:00+01:00,MW,-1.259
Swansea Waterfront,2024-05-03T00:35:00+01:00,MW,-1.255
Swansea Waterfront,2024-05-03T00:40:00+01:00,MW,-1.241
Swansea Waterfront,2024-05-03T00:45:00+01:00,MW,-1.183
Swansea Waterfront,2024-05-03T00:50:00+01:00,MW,-1.259
Swansea Waterfront,2024-05-03T00:55:00+01:00,MW,-1.253
Swansea Waterfront,2024-05-03T01:00:00+01:00,MW,-1.263
Swansea Waterfront,2024-05-03T01:05:00+01:00,MW,-1.259
Swansea Waterfront,2024-05-03T01:10:00+01:00,MW,-1.251
Swansea Waterfront,2024-05-03T01:15:00+01:00,MW,-1.261
Swansea Waterfront,2024-05-03T01:20:00+01:00,MW,-1.258
Swansea Waterfront,2024-05-03T01:25:00+01:00,MW,-1.245
Swansea Waterfront,2024-05-03T01:30:00+01:00,MW,-1.262
Swansea Waterfront,2024-05-03T01:35:00+01:00,MW,-1.201
Swansea Waterfront,2024-05-03T01:40:00+01:00,MW,-1.172
Swansea Waterfront,2024-05-03T01:45:00+01:00,MW,-1.196
Swansea Waterfront,2024-05-03T01:50:00+01:00,MW,-1.191
Swansea Waterfront,2024-05-03T01:55:00+01:00,MW,-1.191
Swansea Waterfront,2024-05-03T02:00:00+01:00,MW,-1.185
Swansea Waterfront,2024-05-03T02:05:00+01:00,MW,-1.199
Swansea Waterfront,2024-05-03T02:10:00+01:00,MW,-1.186
Swansea Waterfront,2024-05-03T02:15:00+01:00,MW,-1.196
Swansea Waterfront,2024-05-03T02:20:00+01:00,MW,-1.192
Swansea Waterfront,2024-05-03T02:25:00+01:00,MW,-1.181
Swansea Waterfront,2024-05-03T02:30:00+01:00,MW,-1.193
Swansea Waterfront,2024-05-03T02:35:00+01:00,MW,-1.189
Swansea Waterfront,2024-05-03T02:40:00+01:00,MW,-1.19
Swansea Waterfront,2024-05-03T02:45:00+01:00,MW,-1.185
Swansea Waterfront,2024-05-03T02:50:00+01:00,MW,-1.19
Swansea Waterfront,2024-05-03T02:55:00+01:00,MW,-1.195
Swansea Waterfront,2024-05-03T03:00:00+01:00,MW,-1.194
Swansea Waterfront,2024-05-03T03:05:00+01:00,MW,-1.189
Swansea Waterfront,2024-05-03T03:10:00+01:00,MW,-1.189
Swansea Waterfront,2024-05-03T03:15:00+01:00,MW,-1.133
Swansea Waterfront,2024-05-03T03:20:00+01:00,MW,-1.124
Swansea Waterfront,2024-05-03T03:25:00+01:00,MW,-1.138
Swansea Waterfront,2024-05-03T03:30:00+01:00,MW,-1.117
Swansea Waterfront,2024-05-03T03:35:00+01:00,MW,-1.1
Swansea Waterfront,2024-05-03T03:40:00+01:00,MW,-1.121
Swansea Waterfront,2024-05-03T03:45:00+01:00,MW,-1.132
Swansea Waterfront,2024-05-03T03:50:00+01:00,MW,-1.133
Swansea Waterfront,2024-05-03T03:55:00+01:00,MW,-1.119
Swansea Waterfront,2024-05-03T04:00:00+01:00,MW,-1.158
Swansea Waterfront,2024-05-03T04:05:00+01:00,MW,-1.194
Swansea Waterfront,2024-05-03T04:10:00+01:00,MW,-1.14
Swansea Waterfront,2024-05-03T04:15:00+01:00,MW,-1.113
Swansea Waterfront,2024-05-03T04:20:00+01:00,MW,-1.125
Swansea Waterfront,2024-05-03T04:25:00+01:00,MW,-1.12
Swansea Waterfront,2024-05-03T04:30:00+01:00,MW,-1.113
Swansea Waterfront,2024-05-03T04:35:00+01:00,MW,-1.121
Swansea Waterfront,2024-05-03T04:40:00+01:00,MW,-1.109
Swansea Waterfront,2024-05-03T04:45:00+01:00,MW,-1.108
Swansea Waterfront,2024-05-03T04:50:00+01:00,MW,-1.122
Swansea Waterfront,2024-05-03T04:55:00+01:00,MW,-1.137
Swansea Waterfront,2024-05-03T05:00:00+01:00,MW,-1.145
Swansea Waterfront,2024-05-03T05:05:00+01:00,MW,-1.128
Swansea Waterfront,2024-05-03T05:10:00+01:00,MW,-1.125
Swansea Waterfront,2024-05-03T05:15:00+01:00,MW,-1.142
Swansea Waterfront,2024-05-03T05:20:00+01:00,MW,-1.128
Swansea Waterfront,2024-05-03T05:25:00+01:00,MW,-1.106
Swansea Waterfront,2024-05-03T05:30:00+01:00,MW,-1.123
Swansea Waterfront,2024-05-03T05:35:00+01:00,MW,-1.125
Swansea Waterfront,2024-05-03T05:40:00+01:00,MW,-1.119
Swansea Waterfront,2024-05-03T05:45:00+01:00,MW,-1.145
Swansea Waterfront,2024-05-03T05:50:00+01:00,MW,-1.196
Swansea Waterfront,2024-05-03T05:55:00+01:00,MW,-1.193
Swansea Waterfront,2024-05-03T06:00:00+01:00,MW,-1.193
Swansea Waterfront,2024-05-03T06:05:00+01:00,MW,-1.214
Swansea Waterfront,2024-05-03T06:10:00+01:00,MW,-1.269
Swansea Waterfront,2024-05-03T06:15:00+01:00,MW,-1.26
Swansea Waterfront,2024-05-03T06:20:00+01:00,MW,-1.288
Swansea Waterfront,2024-05-03T06:25:00+01:00,MW,-1.331
Swansea Waterfront,2024-05-03T06:30:00+01:00,MW,-1.319
Swansea Waterfront,2024-05-03T06:35:00+01:00,MW,-1.33
Swansea Waterfront,2024-05-03T06:40:00+01:00,MW,-1.329
Swansea Waterfront,2024-05-03T06:45:00+01:00,MW,-1.32
Swansea Waterfront,2024-05-03T06:50:00+01:00,MW,-1.324
Swansea Waterfront,2024-05-03T06:55:00+01:00,MW,-1.326
Swansea Waterfront,2024-05-03T07:00:00+01:00,MW,-1.33
Swansea Waterfront,2024-05-03T07:05:00+01:00,MW,-1.395
Swansea Waterfront,2024-05-03T07:10:00+01:00,MW,-1.453
Swansea Waterfront,2024-05-03T07:15:00+01:00,MW,-1.462
Swansea Waterfront,2024-05-03T07:20:00+01:00,MW,-1.458
Swansea Waterfront,2024-05-03T07:25:00+01:00,MW,-1.458
Swansea Waterfront,2024-05-03T07:30:00+01:00,MW,-1.461
Swansea Waterfront,2024-05-03T07:35:00+01:00,MW,-1.457
Swansea Waterfront,2024-05-03T07:40:00+01:00,MW,-1.49
Swansea Waterfront,2024-05-03T07:45:00+01:00,MW,-1.534
Swansea Waterfront,2024-05-03T07:50:00+01:00,MW,-1.512
Swansea Waterfront,2024-05-03T07:55:00+01:00,MW,-1.541
Swansea Waterfront,2024-05-03T08:00:00+01:00,MW,-1.527
Swansea Waterfront,2024-05-03T08:05:00+01:00,MW,-1.533
Swansea Waterfront,2024-05-03T08:10:00+01:00,MW,-1.515
Swansea Waterfront,2024-05-03T08:15:00+01:00,MW,-1.527
Swansea Waterfront,2024-05-03T08:20:00+01:00,MW,-1.517
Swansea Waterfront,2024-05-03T08:25:00+01:00,MW,-1.533
Swansea Waterfront,2024-05-03T08:30:00+01:00,MW,-1.587
Swansea Waterfront,2024-05-03T08:35:00+01:00,MW,-1.599
Swansea Waterfront,2024-05-03T08:40:00+01:00,MW,-1.593
Swansea Waterfront,2024-05-03T08:45:00+01:00,MW,-1.6
Swansea Waterfront,2024-05-03T08:50:00+01:00,MW,-1.588
Swansea Waterfront,2024-05-03T08:55:00+01:00,MW,-1.61
Swansea Waterfront,2024-05-03T09:00:00+01:00,MW,-1.586
Swansea Waterfront,2024-05-03T09:05:00+01:00,MW,-1.641
Swansea Waterfront,2024-05-03T09:10:00+01:00,MW,-1.674
Swansea Waterfront,2024-05-03T09:15:00+01:00,MW,-1.653
Swansea Waterfront,2024-05-03T09:20:00+01:00,MW,-1.658
Swansea Waterfront,2024-05-03T09:25:00+01:00,MW,-1.66
Swansea Waterfront,2024-05-03T09:30:00+01:00,MW,-1.655
Swansea Waterfront,2024-05-03T09:35:00+01:00,MW,-1.661
Swansea Waterfront,2024-05-03T09:40:00+01:00,MW,-1.643
Swansea Waterfront,2024-05-03T09:45:00+01:00,MW,-1.594
Swansea Waterfront,2024-05-03T09:50:00+01:00,MW,-1.661
Swansea Waterfront,2024-05-03T09:55:00+01:00,MW,-1.658
Swansea Waterfront,2024-05-03T10:00:00+01:00,MW,-1.653
Swansea Waterfront,2024-05-03T10:05:00+01:00,MW,-1.66
Swansea Waterfront,2024-05-03T10:10:00+01:00,MW,-1.655
Swansea Waterfront,2024-05-03T10:15:00+01:00,MW,-1.66
Swansea Waterfront,2024-05-03T10:20:00+01:00,MW,-1.658
Swansea Waterfront,2024-05-03T10:25:00+01:00,MW,-1.66
Swansea Waterfront,2024-05-03T10:30:00+01:00,MW,-1.692
Swansea Waterfront,2024-05-03T10:35:00+01:00,MW,-1.651
Swansea Waterfront,2024-05-03T10:40:00+01:00,MW,-1.717
Swansea Waterfront,2024-05-03T10:45:00+01:00,MW,-1.764
Swansea Waterfront,2024-05-03T10:50:00+01:00,MW,-1.716
Swansea Waterfront,2024-05-03T10:55:00+01:00,MW,-1.663
Swansea Waterfront,2024-05-03T11:00:00+01:00,MW,-1.672
Swansea Waterfront,2024-05-03T11:05:00+01:00,MW,-1.659
Swansea Waterfront,2024-05-03T11:10:00+01:00,MW,-1.668
Swansea Waterfront,2024-05-03T11:15:00+01:00,MW,-1.706
Swansea Waterfront,2024-05-03T11:20:00+01:00,MW,-1.723
Swansea Waterfront,2024-05-03T11:25:00+01:00,MW,-1.696
Swansea Waterfront,2024-05-03T11:30:00+01:00,MW,-1.648
Swansea Waterfront,2024-05-03T11:35:00+01:00,MW,-1.655
Swansea Waterfront,2024-05-03T11:40:00+01:00,MW,-1.666
Swansea Waterfront,2024-05-03T11:45:00+01:00,MW,-1.653
Swansea Waterfront,2024-05-03T11:50:00+01:00,MW,-1.661
Swansea Waterfront,2024-05-03T11:55:00+01:00,MW,-1.658
Swansea Waterfront,2024-05-03T12:00:00+01:00,MW,-1.665
Swansea Waterfront,2024-05-03T12:05:00+01:00,MW,-1.729
Swansea Waterfront,2024-05-03T12:10:00+01:00,MW,-1.736
Swansea Waterfront,2024-05-03T12:15:00+01:00,MW,-1.723
Swansea Waterfront,2024-05-03T12:20:00+01:00,MW,-1.721
Swansea Waterfront,2024-05-03T12:25:00+01:00,MW,-1.73
Swansea Waterfront,2024-05-03T12:30:00+01:00,MW,-1.721
Swansea Waterfront,2024-05-03T12:35:00+01:00,MW,-1.689
Swansea Waterfront,2024-05-03T12:40:00+01:00,MW,-1.72
Swansea Waterfront,2024-05-03T12:45:00+01:00,MW,-1.657
Swansea Waterfront,2024-05-03T12:50:00+01:00,MW,-1.682
Swansea Waterfront,2024-05-03T12:55:00+01:00,MW,-1.673
Swansea Waterfront,2024-05-03T13:00:00+01:00,MW,-1.671
Swansea Waterfront,2024-05-03T13:05:00+01:00,MW,-1.715
Swansea Waterfront,2024-05-03T13:10:00+01:00,MW,-1.662
Swansea Waterfront,2024-05-03T13:15:00+01:00,MW,-1.659
Swansea Waterfront,2024-05-03T13:20:00+01:00,MW,-1.688
Swansea Waterfront,2024-05-03T13:25:00+01:00,MW,-1.728
Swansea Waterfront,2024-05-03T13:30:00+01:00,MW,-1.703
Swansea Waterfront,2024-05-03T13:35:00+01:00,MW,-1.73
Swansea Waterfront,2024-05-03T13:40:00+01:00,MW,-1.691
Swansea Waterfront,2024-05-03T13:45:00+01:00,MW,-1.687
Swansea Waterfront,2024-05-03T13:50:00+01:00,MW,-1.726
Swansea Waterfront,2024-05-03T13:55:00+01:00,MW,-1.729
Swansea Waterfront,2024-05-03T14:00:00+01:00,MW,-1.729
Swansea Waterfront,2024-05-03T14:05:00+01:00,MW,-1.728
Swansea Waterfront,2024-05-03T14:10:00+01:00,MW,-1.676
Swansea Waterfront,2024-05-03T14:15:00+01:00,MW,-1.671
Swansea Waterfront,2024-05-03T14:20:00+01:00,MW,-1.712
Swansea Waterfront,2024-05-03T14:25:00+01:00,MW,-1.662
Swansea Waterfront,2024-05-03T14:30:00+01:00,MW,-1.65
Swansea Waterfront,2024-05-03T14:35:00+01:00,MW,-1.663
Swansea Waterfront,2024-05-03T14:40:00+01:00,MW,-1.688
Swansea Waterfront,2024-05-03T14:45:00+01:00,MW,-1.661
Swansea Waterfront,2024-05-03T14:50:00+01:00,MW,-1.656
Swansea Waterfront,2024-05-03T14:55:00+01:00,MW,-1.659
Swansea Waterfront,2024-05-03T15:00:00+01:00,MW,-1.666
Swansea Waterfront,2024-05-03T15:05:00+01:00,MW,-1.629
Swansea Waterfront,2024-05-03T15:10:00+01:00,MW,-1.596
Swansea Waterfront,2024-05-03T15:15:00+01:00,MW,-1.57
Swansea Waterfront,2024-05-03T15:20:00+01:00,MW,-1.596
Swansea Waterfront,2024-05-03T15:25:00+01:00,MW,-1.627
Swansea Waterfront,2024-05-03T15:30:00+01:00,MW,-1.62
Swansea Waterfront,2024-05-03T15:35:00+01:00,MW,-1.646
Swansea Waterfront,2024-05-03T15:40:00+01:00,MW,-1.662
Swansea Waterfront,2024-05-03T15:45:00+01:00,MW,-1.661
Swansea Waterfront,2024-05-03T15:50:00+01:00,MW,-1.659
Swansea Waterfront,2024-05-03T15:55:00+01:00,MW,-1.695
Swansea Waterfront,2024-05-03T16:00:00+01:00,MW,-1.693
Swansea Waterfront,2024-05-03T16:05:00+01:00,MW,-1.66
Swansea Waterfront,2024-05-03T16:10:00+01:00,MW,-1.658
Swansea Waterfront,2024-05-03T16:15:00+01:00,MW,-1.658
Swansea Waterfront,2024-05-03T16:20:00+01:00,MW,-1.656
Swansea Waterfront,2024-05-03T16:25:00+01:00,MW,-1.661
Swansea Waterfront,2024-05-03T16:30:00+01:00,MW,-1.658
Swansea Waterfront,2024-05-03T16:35:00+01:00,MW,-1.66
Swansea Waterfront,2024-05-03T16:40:00+01:00,MW,-1.658
Swansea Waterfront,2024-05-03T16:45:00+01:00,MW,-1.66
Swansea Waterfront,2024-05-03T16:50:00+01:00,MW,-1.659
Swansea Waterfront,2024-05-03T16:55:00+01:00,MW,-1.655
Swansea Waterfront,2024-05-03T17:00:00+01:00,MW,-1.664
Swansea Waterfront,2024-05-03T17:05:00+01:00,MW,-1.657
Swansea Waterfront,2024-05-03T17:10:00+01:00,MW,-1.659
Swansea Waterfront,2024-05-03T17:15:00+01:00,MW,-1.661
Swansea Waterfront,2024-05-03T17:20:00+01:00,MW,-1.657
Swansea Waterfront,2024-05-03T17:25:00+01:00,MW,-1.661
Swansea Waterfront,2024-05-03T17:30:00+01:00,MW,-1.682
Swansea Waterfront,2024-05-03T17:35:00+01:00,MW,-1.673
Swansea Waterfront,2024-05-03T17:40:00+01:00,MW,-1.651
Swansea Waterfront,2024-05-03T17:45:00+01:00,MW,-1.663
Swansea Waterfront,2024-05-03T17:50:00+01:00,MW,-1.657
Swansea Waterfront,2024-05-03T17:55:00+01:00,MW,-1.658
Swansea Waterfront,2024-05-03T18:00:00+01:00,MW,-1.654
Swansea Waterfront,2024-05-03T18:05:00+01:00,MW,-1.666
Swansea Waterfront,2024-05-03T18:10:00+01:00,MW,-1.668
Swansea Waterfront,2024-05-03T18:15:00+01:00,MW,-1.648
Swansea Waterfront,2024-05-03T18:20:00+01:00,MW,-1.655
Swansea Waterfront,2024-05-03T18:25:00+01:00,MW,-1.662
Swansea Waterfront,2024-05-03T18:30:00+01:00,MW,-1.657
Swansea Waterfront,2024-05-03T18:35:00+01:00,MW,-1.65
Swansea Waterfront,2024-05-03T18:40:00+01:00,MW,-1.671
Swansea Waterfront,2024-05-03T18:45:00+01:00,MW,-1.625
Swansea Waterfront,2024-05-03T18:50:00+01:00,MW,-1.601
Swansea Waterfront,2024-05-03T18:55:00+01:00,MW,-1.662
Swansea Waterfront,2024-05-03T19:00:00+01:00,MW,-1.65
Swansea Waterfront,2024-05-03T19:05:00+01:00,MW,-1.669
Swansea Waterfront,2024-05-03T19:10:00+01:00,MW,-1.659
Swansea Waterfront,2024-05-03T19:15:00+01:00,MW,-1.653
Swansea Waterfront,2024-05-03T19:20:00+01:00,MW,-1.644
Swansea Waterfront,2024-05-03T19:25:00+01:00,MW,-1.671
Swansea Waterfront,2024-05-03T19:30:00+01:00,MW,-1.646
Swansea Waterfront,2024-05-03T19:35:00+01:00,MW,-1.582
Swansea Waterfront,2024-05-03T19:40:00+01:00,MW,-1.605
Swansea Waterfront,2024-05-03T19:45:00+01:00,MW,-1.577
Swansea Waterfront,2024-05-03T19:50:00+01:00,MW,-1.645
Swansea Waterfront,2024-05-03T19:55:00+01:00,MW,-1.615
Swansea Waterfront,2024-05-03T20:00:00+01:00,MW,-1.61
Swansea Waterfront,2024-05-03T20:05:00+01:00,MW,-1.666
Swansea Waterfront,2024-05-03T20:10:00+01:00,MW,-1.59
Swansea Waterfront,2024-05-03T20:15:00+01:00,MW,-1.594
Swansea Waterfront,2024-05-03T20:20:00+01:00,MW,-1.596
Swansea Waterfront,2024-05-03T20:25:00+01:00,MW,-1.568
Swansea Waterfront,2024-05-03T20:30:00+01:00,MW,-1.55
Swansea Waterfront,2024-05-03T20:35:00+01:00,MW,-1.527
Swansea Waterfront,2024-05-03T20:40:00+01:00,MW,-1.523
Swansea Waterfront,2024-05-03T20:45:00+01:00,MW,-1.538
Swansea Waterfront,2024-05-03T20:50:00+01:00,MW,-1.513
Swansea Waterfront,2024-05-03T20:55:00+01:00,MW,-1.526
Swansea Waterfront,2024-05-03T21:00:00+01:00,MW,-1.518
Swansea Waterfront,2024-05-03T21:05:00+01:00,MW,-1.532
Swansea Waterfront,2024-05-03T21:10:00+01:00,MW,-1.522
Swansea Waterfront,2024-05-03T21:15:00+01:00,MW,-1.526
Swansea Waterfront,2024-05-03T21:20:00+01:00,MW,-1.527
Swansea Waterfront,2024-05-03T21:25:00+01:00,MW,-1.53
Swansea Waterfront,2024-05-03T21:30:00+01:00,MW,-1.526
Swansea Waterfront,2024-05-03T21:35:00+01:00,MW,-1.524
Swansea Waterfront,2024-05-03T21:40:00+01:00,MW,-1.521
Swansea Waterfront,2024-05-03T21:45:00+01:00,MW,-1.523
Swansea Waterfront,2024-05-03T21:50:00+01:00,MW,-1.5
Swansea Waterfront,2024-05-03T21:55:00+01:00,MW,-1.449
Swansea Waterfront,2024-05-03T22:00:00+01:00,MW,-1.459
Swansea Waterfront,2024-05-03T22:05:00+01:00,MW,-1.447
Swansea Waterfront,2024-05-03T22:10:00+01:00,MW,-1.393
Swansea Waterfront,2024-05-03T22:15:00+01:00,MW,-1.404
Swansea Waterfront,2024-05-03T22:20:00+01:00,MW,-1.459
Swansea Waterfront,2024-05-03T22:25:00+01:00,MW,-1.439
Swansea Waterfront,2024-05-03T22:30:00+01:00,MW,-1.396
Swansea Waterfront,2024-05-03T22:35:00+01:00,MW,-1.371
Swansea Waterfront,2024-05-03T22:40:00+01:00,MW,-1.39
Swansea Waterfront,2024-05-03T22:45:00+01:00,MW,-1.368
Swansea Waterfront,2024-05-03T22:50:00+01:00,MW,-1.311
Swansea Waterfront,2024-05-03T22:55:00+01:00,MW,-1.323
Swansea Waterfront,2024-05-03T23:00:00+01:00,MW,-1.323
Swansea Waterfront,2024-05-03T23:05:00+01:00,MW,-1.325
Swansea Waterfront,2024-05-03T23:10:00+01:00,MW,-1.331
Swansea Waterfront,2024-05-03T23:15:00+01:00,MW,-1.333
Swansea Waterfront,2024-05-03T23:20:00+01:00,MW,-1.314
Swansea Waterfront,2024-05-03T23:25:00+01:00,MW,-1.322
Swansea Waterfront,2024-05-03T23:30:00+01:00,MW,-1.329
Swansea Waterfront,2024-05-03T23:35:00+01:00,MW,-1.265
Swansea Waterfront,2024-05-03T23:40:00+01:00,MW,-1.253
Swansea Waterfront,2024-05-03T23:45:00+01:00,MW,-1.221
Swansea Waterfront,2024-05-03T23:50:00+01:00,MW,-1.182
Swansea Waterfront,2024-05-03T23:55:00+01:00,MW,-1.19
Swansea Waterfront,2024-05-04T00:00:00+01:00,MW,-1.185
